sat.trackr.live / text

‹ back to catalog

STARLINK-3715

NORAD 52127 · 2022-029AR

PAYLOAD ACTIVE UNKNOWN

§ Identity

Operator
Country
US
Launch date
2022-03-19
Launch site
AFETR
Launch vehicle
Mass (kg)
RCS (m²)

Purposes: comms

External: N2YO · Heavens-Above · Gunter

§ Orbital elements

Epoch: 2026-09-19T15:38:34.002816Z

Period
93.79 min
Inclination
53.1594°
Eccentricity
0.0001206
Mean motion
15.35401371 rev/d
Perigee alt
458.9 km
Apogee alt
460.6 km
Semi-major
6,837.9 km
B*
2.3686e-5
RAAN
271.5778°
Arg perigee
77.8137°
Mean anomaly
282.3001°
Rev number
25,029

§ Raw data

STARLINK-37151 52127U 22029AR  26262.65178244  .00000446  00000+0  23686-4 0  99992 52127  53.1594 271.5778 0001206  77.8137 282.3001 15.35401371250299

JSON: /api/v1/satellites/52127 · /tle

For live sub-satellite position, see the globe view (requires WebGL).

§ Visibility from observer

Set your observer location to see the next 7 days of passes ≥ 10°. The values pass through the URL so the page stays shareable.

No JS? Fill the form by hand. The geolocation button needs JavaScript.